Weather observations for the past three days for
Windsor Locks, Bradley International Airport
Metric (Imperial)
Date Time (edt) Wind (kph) Vis. (km) Weather Sky Cond. Temperature (ºC) Relative Humidity Wind Chill (°C) Heat Index (°C) Pressure Precipitation (cm)
Air Dwpt 6 hour altimeter (cm) sea level (mb) 1 hr 3 hr 6 hr
Max. Min.
25 00:51 NW 11 16.09 A Few Clouds FEW250 21.1 6.1 38% 75.77 1010.1
24 23:51 NW 9 16.09 Fair CLR 21.1 6.7 39% 75.77 1009.9
24 22:51 NW 19 G 33 16.09 Fair CLR 22.2 7.8 40% 75.74 1009.8
24 21:51 NW 13 16.09 Fair CLR 22.8 8.9 41% 75.72 1009.2
24 20:51 N 11 16.09 Fair CLR 24.4 8.9 37% 25 75.64 1008.4
24 19:51 N 13 16.09 A Few Clouds FEW095 26.7 9.4 30.6 26.7 34% 26 75.59 1007.6
24 18:51 NW 19 16.09 A Few Clouds FEW095 29.4 8.9 28% 28 75.57 1007.2
24 17:51 W 24 16.09 A Few Clouds FEW090 30 8.3 26% 28 75.54 1007.1
24 16:51 W 20 G 44 16.09 A Few Clouds FEW085 30.6 9.4 27% 29 75.54 1007.0
24 15:51 W 24 G 37 16.09 A Few Clouds FEW085 30.6 8.9 26% 29 75.51 1006.7
24 14:51 W 24 G 39 16.09 A Few Clouds FEW085 30.6 9.4 27% 29 75.59 1007.6
24 13:51 W 22 G 31 16.09 A Few Clouds FEW090 30 8.3 30.6 20.6 26% 28 75.62 1008.0
24 12:51 W 15 G 37 16.09 A Few Clouds FEW100 FEW250 29.4 5.6 22% 28 75.67 1008.6
24 11:51 SW 28 G 41 16.09 A Few Clouds FEW090 FEW250 28.9 6.7 25% 28 75.69 1008.9
24 10:51 W 15 G 31 16.09 Partly Cloudy FEW070 SCT250 27.8 8.9 31% 27 75.74 1009.5
24 09:51 S 11 16.09 Partly Cloudy SCT250 25.6 11.1 40% 26 75.79 1010.4
24 08:51 Vrbl 6 16.09 A Few Clouds FEW070 FEW250 22.8 13.9 57% 75.84 1011.1
24 07:51 Calm 16.09 Partly Cloudy FEW070 SCT250 20 13.9 20 14.4 68% 75.87 1011.2
24 06:51 Calm 16.09 A Few Clouds FEW070 FEW250 17.8 13.9 78% 75.84 1011.1
24 05:51 W 6 16.09 A Few Clouds FEW070 FEW250 14.4 12.8 90% 75.82 1010.8
24 04:51 Calm 16.09 Fair CLR 16.1 13.3 84% 75.82 1010.5
24 03:51 S 6 16.09 Fair CLR 16.1 13.9 87% 75.82 1010.5
24 02:51 Calm 16.09 Fair CLR 17.2 13.3 78% 75.82 1010.5
24 01:51 W 6 16.09 Fair CLR 17.8 13.9 25.6 16.7 78% 75.79 1010.4
24 00:51 Calm 16.09 Partly Cloudy SCT250 17.8 13.3 75% 75.79 1010.4
23 23:51 W 6 16.09 A Few Clouds FEW055 FEW250 21.1 12.8 59% 75.82 1010.6
23 22:51 W 6 16.09 Mostly Cloudy BKN050 22.2 14.4 61% 75.82 1010.5
23 21:51 W 7 16.09 Mostly Cloudy BKN043 BKN060 23.3 16.7 67% 75.79 1010.3
23 20:51 SW 6 16.09 Mostly Cloudy FEW035 FEW110 FEW190 BKN220 BKN250 23.3 17.2 69% 75.72 1009.3
23 19:51 W 6 16.09 Mostly Cloudy FEW036 FEW160 BKN210 BKN240 25.6 16.7 29.4 25 58% 26 75.69 1009.1
23 18:51 W 15 16.09 Mostly Cloudy FEW037 BKN200 BKN220 27.2 16.1 51% 28 75.69 1009.0
23 17:51 SW 22 16.09 Mostly Cloudy FEW043 FEW050 BKN200 BKN220 28.9 16.7 48% 29 75.69 1009.1
23 16:51 W 13 16.09 Mostly Cloudy SCT043 SCT050 BKN065 BKN220 28.3 17.8 53% 29 75.69 1008.9
23 15:51 S 13 16.09 Mostly Cloudy SCT027 SCT035 BKN180 BKN200 27.2 19.4 62% 29 75.72 1009.4
23 14:51 S 9 16.09 Mostly Cloudy SCT018 BKN027 BKN090 BKN180 26.1 20 69% 27 75.77 1010.0
23 13:51 Vrbl 9 16.09 Mostly Cloudy FEW030 SCT080 BKN170 BKN200 25.6 19.4 25.6 21.1 69% 27 75.79 1010.2 0.79
23 12:51 NW 6 16.09 Overcast FEW030 SCT065 BKN080 OVC130 23.3 20 82% 75.77 1010.1 0.3
23 11:51 W 13 4.83 Thunderstorm Rain Fog/Mist SCT046CB BKN065 OVC090 21.7 19.4 87% 75.9 1011.6 0.36
23 10:51 W 11 11.27 Light Rain FEW047 SCT090 OVC110 21.1 18.9 87% 75.84 1011.0 0.13 0.13
23 09:51 S 15 11.27 Thunderstorm Light Rain FEW020CB SCT090 SCT150 OVC220 21.7 17.8 79% 75.82 1010.7
23 08:51 S 7 16.09 Overcast FEW043 SCT090 BKN200 OVC240 22.8 17.2 71% 75.79 1010.3
23 07:51 S 9 16.09 Mostly Cloudy FEW028 FEW043 FEW110 BKN150 21.7 16.7 21.7 20 73% 75.77 1010.0
23 06:51 S 9 16.09 Light Rain FEW042 BKN110 BKN150 BKN250 20.6 16.1 76% 75.77 1010.0
23 05:51 S 13 16.09 Mostly Cloudy BKN110 BKN150 20 15.6 76% 75.79 1010.4
23 04:51 S 13 16.09 Mostly Cloudy BKN100 BKN120 BKN150 20 15.6 76% 75.79 1010.4
23 03:51 S 11 16.09 Mostly Cloudy BKN120 BKN160 20 15.6 76% 75.79 1010.4
23 02:51 S 17 16.09 Mostly Cloudy SCT110 BKN160 BKN240 20 15 73% 75.82 1010.8
23 01:51 S 13 16.09 Mostly Cloudy SCT120 SCT180 BKN250 20 15 25.6 20 73% 75.84 1011.0
23 00:51 S 15 16.09 Mostly Cloudy FEW110 BKN250 20 15 73% 75.84 1011.0
22 23:51 S 15 16.09 A Few Clouds FEW250 21.1 15 68% 75.84 1011.0
22 22:51 S 15 16.09 A Few Clouds FEW250 21.7 15 66% 75.87 1011.3
22 21:51 S 15 16.09 A Few Clouds FEW250 22.8 15.6 64% 75.9 1011.6
22 20:51 S 17 16.09 A Few Clouds FEW250 23.9 15.6 60% 25 75.87 1011.4
22 19:51 S 20 16.09 A Few Clouds FEW060 FEW250 25.6 15.6 33.9 25.6 54% 26 75.82 1010.8
22 18:51 S 28 G 41 16.09 A Few Clouds FEW060 27.2 16.1 51% 28 75.82 1010.6
22 17:51 S 35 G 46 16.09 A Few Clouds and Breezy FEW060 30 16.7 45% 30 75.82 1010.5
22 16:51 S 28 G 41 16.09 A Few Clouds FEW055 31.7 16.7 41% 32 75.77 1010.0
22 15:51 S 22 G 39 16.09 A Few Clouds FEW040 32.8 17.8 41% 34 75.79 1010.3
22 14:51 S 19 G 35 16.09 A Few Clouds FEW040 32.8 16.7 38% 33 75.82 1010.7
22 13:51 S 19 16.09 A Few Clouds FEW035 32.2 17.2 32.2 20 41% 33 75.87 1011.5
22 12:51 S 19 G 31 16.09 Fair CLR 31.7 17.2 42% 32 75.92 1012.0
22 11:51 S 19 16.09 Fair CLR 30.6 16.7 43% 31 75.97 1012.8
22 10:51 S 15 16.09 A Few Clouds FEW250 28.3 17.2 51% 29 76.02 1013.5
22 09:51 S 17 16.09 A Few Clouds FEW250 25.6 17.2 60% 27 76.07 1014.0
22 08:51 SE 9 16.09 A Few Clouds FEW250 22.8 16.1 66% 76.1 1014.4
22 07:51 S 9 16.09 A Few Clouds FEW200 FEW250 19.4 15.6 19.4 15.6 79% 76.12 1014.8
22 06:51 S 9 16.09 A Few Clouds FEW250 17.2 14.4 84% 76.15 1015.2
22 05:51 S 9 16.09 A Few Clouds FEW250 16.1 13.9 87% 76.12 1014.6
22 04:51 SE 7 16.09 A Few Clouds FEW250 16.1 13.9 87% 76.05 1013.8
22 03:51 S 7 16.09 A Few Clouds FEW250 16.7 14.4 86% 76.02 1013.5
22 02:51 S 9 16.09 Partly Cloudy SCT250 17.2 15 87% 76.02 1013.5
22 01:51 S 13 16.09 Partly Cloudy SCT250 18.3 15 26.1 17.8 81% 76.02 1013.5
Date Time (edt) Wind (kph) Vis. (km) Weather Sky Cond. Air Dwpt Max. Min. Relative Humidity Wind Chill (°C) Heat Index (°C) altimeter (cm) sea level (mb) 1 hr 3 hr 6 hr
6 hour
Temperature (ºC) Pressure Precipitation (cm)